EW7001 Weather Reports


time (UTC)temp
C
wind
direction
speed
KPH
gust
KPH
rain 1hr
cm
rain 24hr
cm
rain mn
cm
humidity
%
barometer
mb
20260906220058 35 207 19.3 45.1 5.71 11.00 9.50 11 999.9
20260906214551 35 210 19.3 48.3 4.75 9.32 7.82 11 1000.0
20260906213054 35 227 16.1 46.7 4.70 8.46 6.96 12 1000.3
20260906211545 35 223 27.4 41.8 4.42 7.72 6.22 12 1000.5
20260906210043 34 150 16.1 33.8 2.13 5.13 3.63 14 1000.5
20260906204552 35 219 25.7 37.0 2.03 4.52 3.02 15 1000.6
20260906203033 33 178 9.7 29.0 1.35 3.76 2.26 18 1000.9
20260906201530 33 172 17.7 32.2 1.17 3.30 1.80 19 1001.2
20260906200028 33 218 12.9 46.7 1.02 3.00 1.50 20 1001.5
20260906194520 32 187 14.5 29.0 0.61 2.49 0.99 21 1001.8
20260906193017 32 152 11.3 24.1 0.53 2.41 0.91 23 1002.1
20260906191514 32 243 3.2 27.4 0.38 2.13 0.64 23 1002.3
20260906190011 31 166 12.9 27.4 0.30 1.98 0.48 23 1002.6
20260906184607 31 225 11.3 32.2 0.33 1.88 0.38 24 1002.7
20260906183034 31 188 19.3 27.4 0.33 1.88 0.38 25 1003.0
20260906181539 30 243 8.0 20.9 0.25 1.75 0.25 26 1003.3
20260906180106 30 181 8.0 25.7 0.18 1.68 0.18 29 1003.5
20260906174551 29 218 14.5 24.1 0.05 1.55 0.05 30 1003.9
20260906173021 28 222 8.0 33.8 0.05 1.55 0.05 31 1004.1
20260906171513 28 211 16.1 22.5 0.00 1.50 0.00 33 1004.3
20260906170008 27 193 8.0 22.5 0.13 1.50 0.00 35 1004.4
20260906164506 26 226 9.7 17.7 0.13 1.50 1.50 40 1004.6
20260906163008 26 237 9.7 17.7 0.15 1.50 1.50 41 1004.8
20260906161506 25 152 11.3 20.9 0.46 1.42 1.42 47 1004.8
20260906160036 25 195 9.7 17.7 0.56 1.37 1.37 48 1004.9
20260906154535 24 192 9.7 16.1 0.66 1.37 1.37 53 1005.0
20260906153041 23 203 12.9 22.5 0.76 1.35 1.35 56 1005.0
20260906151532 22 166 14.5 25.7 0.61 0.99 0.99 59 1005.0
20260906150032 21 207 14.5 22.5 0.43 0.81 0.81 62 1005.1
20260906144529 21 168 14.5 24.1 0.43 0.71 0.71 64 1005.0
20260906143059 20 185 14.5 24.1 0.36 0.58 0.58 68 1005.1
20260906141559 19 192 14.5 22.5 0.20 0.38 0.38 71 1005.0
20260906140028 19 195 14.5 22.5 0.20 0.38 0.38 70 1005.0
20260906134526 18 208 12.9 20.9 0.10 0.28 0.28 72 1005.1
20260906133023 18 135 4.8 14.5 0.05 0.23 0.23 74 1005.0
20260906131523 17 149 3.2 9.7 0.00 0.18 0.18 77 1005.2
20260906130022 17 190 3.2 8.0 0.13 0.18 0.18 76 1005.0
20260906124521 17 183 4.8 16.1 0.13 0.18 0.18 76 1004.9
20260906123051 17 184 11.3 19.3 0.13 0.18 0.18 75 1004.8
20260906121549 17 181 14.5 22.5 0.13 0.18 0.18 75 1004.8
20260906120045 17 201 12.9 19.3 0.00 0.05 0.05 75 1004.8
20260906114548 17 194 11.3 17.7 0.00 0.05 0.05 74 1004.8
20260906113043 17 184 3.2 11.3 0.00 0.05 0.05 75 1004.9
20260906111600 17 163 9.7 17.7 0.00 0.05 0.05 73 1005.0
20260906110013 17 206 8.0 16.1 0.00 0.05 0.05 72 1004.9
20260906104517 17 155 3.2 9.7 0.00 0.05 0.05 71 1005.0
20260906103008 17 300 1.6 3.2 0.00 0.05 0.05 70 1005.1
20260906101516 17 254 1.6 8.0 0.00 0.05 0.05 68 1005.1
20260906100004 17 156 4.8 9.7 0.00 0.05 0.05 71 1005.0
20260906094504 16 114 4.8 8.0 0.00 0.05 0.05 72 1004.8
20260906093103 16 148 1.6 9.7 0.00 0.05 0.05 68 1004.9
20260906091558 16 46 0.0 3.2 0.00 0.05 0.05 64 1004.5
20260906090057 16 206 1.6 4.8 0.00 0.05 0.05 61 1004.5
20260906084553 17 331 1.6 3.2 0.00 0.05 0.05 59 1004.4
20260906083053 17 269 1.6 4.8 0.00 0.05 0.05 59 1004.4
20260906081549 18 318 1.6 4.8 0.00 0.05 0.05 59 1004.6
20260906080049 18 23 1.6 4.8 0.00 0.05 0.05 58 1004.5
20260906074548 17 336 3.2 8.0 0.00 0.05 0.05 56 1004.5
20260906073044 18 310 3.2 6.4 0.00 0.05 0.05 58 1004.7
20260906071545 19 89 0.0 8.0 0.00 0.05 0.05 56 1004.7
20260906070042 18 124 0.0 4.8 0.00 0.05 0.05 53 1004.8
20260906064544 18 1 1.6 3.2 0.00 0.05 0.05 49 1005.0
20260906063014 19 124 1.6 9.7 0.00 0.05 0.05 49 1005.3
20260906061510 16 165 0.0 3.2 0.00 0.05 0.05 51 1005.6
20260906060010 16 105 0.0 3.2 0.00 0.05 0.05 50 1005.5
20260906054506 16 135 0.0 3.2 0.00 0.05 0.05 49 1005.6
20260906053001 17 135 0.0 4.8 0.00 0.05 0.05 47 1005.4
20260906051611 18 178 0.0 3.2 0.00 0.05 0.05 48 1005.4
20260906050057 18 314 1.6 4.8 0.00 0.05 0.05 48 1005.4
20260906044526 18 46 1.6 3.2 0.00 0.05 0.05 46 1005.4
20260906043023 18 324 0.0 3.2 0.00 0.05 0.05 43 1005.4
20260906041518 19 140 3.2 8.0 0.00 0.05 0.05 43 1005.5
20260906040023 20 89 0.0 6.4 0.00 0.05 0.05 39 1005.3
20260906034514 22 1 0.0 4.8 0.00 0.05 0.05 38 1005.3
20260906033032 22 1 3.2 8.0 0.00 0.05 0.05 38 1005.2
20260906031509 22 63 1.6 8.0 0.00 0.05 0.05 36 1005.4
20260906030001 23 314 0.0 3.2 0.00 0.05 0.05 34 1005.1
20260906024613 23 340 1.6 4.8 0.00 0.05 0.05 32 1004.8
20260906023103 25 295 1.6 9.7 0.00 0.05 0.05 30 1004.6
20260906021552 25 46 1.6 11.3 0.00 0.05 0.05 29 1004.4
20260906020053 25 30 3.2 8.0 0.00 0.05 0.05 26 1004.3
20260906014551 26 1 1.6 8.0 0.00 0.15 0.05 25 1004.0
20260906013051 27 347 3.2 11.3 0.00 0.15 0.05 24 1003.9
20260906011546 28 32 3.2 8.0 0.00 0.15 0.05 23 1003.6
20260906010046 28 28 4.8 14.5 0.00 0.15 0.05 22 1003.8
20260906004546 30 25 4.8 12.9 0.00 1.80 0.05 21 1003.6
20260906003045 30 352 4.8 12.9 0.00 1.80 0.05 21 1003.7
20260906001542 30 81 4.8 12.9 0.05 1.80 0.05 21 1003.6
20260906000042 30 15 3.2 14.5 0.05 1.80 0.05 20 1003.5
20260905234541 31 340 6.4 19.3 0.05 2.69 0.05 19 1003.3
20260905233049 32 37 8.0 29.0 0.05 2.69 0.05 19 1003.4
20260905231537 31 241 9.7 24.1 0.00 2.64 0.00 19 1003.1
20260905230034 32 47 6.4 12.9 0.00 2.64 0.00 18 1003.3
20260905224604 31 46 1.6 11.3 0.00 7.37 0.00 19 1003.3
20260905223025 31 79 6.4 19.3 0.00 7.37 0.00 19 1003.4
20260905221555 31 35 3.2 12.9 0.00 7.37 0.00 20 1003.5